Flag for U.S.A. Weather past 2 weeks in Independence, Missouri, U.S.A.

Now
79 °F

Sunny.


Feels Like: 82 °F
Forecast: 68 / 89 °F
Wind: 8 mph from South

Location: Lee's Summit Municipal Airport

Current Time: Jul 5, 2015 at 10:37:39 AM

Latest Report: Jul 5, 2015 at 9:53 AM


Visibility: 10 mi

Pressure: 29.98 "Hg

Humidity: 74%

Dew point: 70 °F

Location of IndependenceLocation

Historic Weather in Independence — Graph

°F

Independence temperature yesterday

Maximum temperature yesterday: 81 °F (at 2:53 PM)
Minimum temperature yesterday: 60 °F (at 5:53 AM)
Average temperature yesterday: 72 °F

Past Weeks' High & Low Weather Summary

 TemperatureHumidityPressure
High95 °F (Jun 20, 3:53 PM)96% (Jul 1, 2:01 AM)30.23 "Hg (Jul 1, 2:01 AM)
Low60 °F (Jul 4, 5:53 AM)42% (Jun 28, 2:53 PM)29.75 "Hg (Jun 20, 7:53 PM)
Average76 °F71%29.93 "Hg
* Reported Jun 20 8:53 AM — Jul 5 8:53 AM, Independence, Weather by CustomWeather, © 2015

Note: Actual official high and low records may vary slightly from our data, if they occured in-between our weather recording intervals... More about our weather records

Advertising

Independence weather history for previous 24 hours

 ConditionsComfort  
Time TempWeatherWind HumidityBarometerVisibility
8:53 AM
Sun, Jul 5
74 °FSunny.8 mph85%29.99 "Hg8 mi
7:53 AM72 °FSunny.9 mph84%29.98 "Hg7 mi
6:53 AM69 °FFog.8 mph90%29.98 "Hg5 mi
5:53 AM69 °FFog.7 mph87%29.96 "Hg5 mi
4:53 AM69 °FClear.6 mph87%29.96 "Hg7 mi
3:53 AM69 °FClear.6 mph84%29.96 "Hg8 mi
2:53 AM69 °FClear.6 mph84%29.97 "Hg7 mi
1:53 AM70 °FClear.3 mph81%29.99 "Hg4 mi
12:53 AM71 °FClear.5 mph78%30.00 "Hg6 mi
11:53 PM
Sat, Jul 4
72 °FClear.3 mph76%29.98 "Hg5 mi
10:53 PM73 °FClear.3 mph74%29.98 "Hg3 mi
9:53 PM74 °FClear.No wind71%29.95 "Hg8 mi
8:53 PM75 °FSunny.3 mph66%29.93 "Hg10 mi
7:53 PM78 °FSunny.6 mph56%29.93 "Hg10 mi
6:53 PM80 °FSunny.6 mph54%29.94 "Hg10 mi
5:53 PM80 °FSunny.6 mph54%29.95 "Hg10 mi
4:53 PM80 °FSunny.6 mph54%29.96 "Hg10 mi
3:53 PM81 °FSunny.6 mph53%29.97 "Hg10 mi
2:53 PM81 °FSunny.6 mph53%29.98 "Hg10 mi
1:53 PM80 °FSunny.5 mph49%30.00 "Hg10 mi
12:53 PM79 °FSunny.8 mph54%30.00 "Hg10 mi
11:53 AM77 °FSunny.No wind58%30.01 "Hg10 mi
10:53 AM75 °FSunny.6 mph62%30.01 "Hg10 mi
Weather by CustomWeather, © 2015

See weather overviewHow to use our weather pages